| time (UTC) | temp F | wind direction | speed MPH | gust MPH | rain 1hr in | rain 24hr in | rain mn in | humidity % | barometer mb |
| 20260504185101 | 79 | 0 | 5.0 | 18.0 | 0.00 | 0.00 | 0.00 | 10 | 1008.1 |
| 20260504181825 | 79 | 0 | 6.0 | 16.0 | 0.00 | 0.00 | 0.00 | 9 | 1008.7 |
| 20260504180849 | 77 | 0 | 5.0 | 17.0 | 0.00 | 0.00 | 0.00 | 10 | 1008.9 |
| 20260504175902 | 77 | 0 | 6.0 | 17.0 | 0.00 | 0.00 | 0.00 | 12 | 1008.9 |
| 20260504174834 | 77 | 0 | 6.0 | 16.0 | 0.00 | 0.00 | 0.00 | 13 | 1008.6 |
| 20260504172739 | 75 | 0 | 6.0 | 16.0 | 0.00 | 0.00 | 0.00 | 19 | 1008.6 |
| 20260504171743 | 74 | 0 | 6.0 | 15.0 | 0.00 | 0.00 | 0.00 | 19 | 1008.6 |
| 20260504170759 | 73 | 0 | 6.0 | 18.0 | 0.00 | 0.00 | 0.00 | 20 | 1008.8 |
| 20260504150703 | 66 | 0 | 6.0 | 13.0 | 0.00 | 0.00 | 0.00 | 30 | 1009.1 |
| 20260504140449 | 64 | 0 | 3.0 | 10.0 | 0.00 | 0.00 | 0.00 | 35 | 1008.9 |
| 20260504130307 | 62 | 0 | 0.0 | 4.0 | 0.00 | 0.00 | 0.00 | 34 | 1008.1 |
| 20260504110717 | 65 | 0 | 2.0 | 7.0 | 0.00 | 0.00 | 0.00 | 31 | 1007.6 |
| 20260504100613 | 66 | 0 | 2.0 | 10.0 | 0.00 | 0.00 | 0.00 | 27 | 1007.7 |
| 20260504081509 | 66 | 0 | 1.0 | 4.0 | 0.00 | 0.00 | 0.00 | 31 | 1007.2 |
| 20260504080511 | 67 | 0 | 2.0 | 5.0 | 0.00 | 0.00 | 0.00 | 30 | 1007.6 |
| 20260504070134 | 68 | 0 | 6.0 | 15.0 | 0.00 | 0.00 | 0.00 | 26 | 1007.6 |
| 20260504045827 | 70 | 0 | 4.0 | 12.0 | 0.00 | 0.00 | 0.00 | 21 | 1007.9 |
| 20260504044820 | 70 | 0 | 3.0 | 10.0 | 0.00 | 0.00 | 0.00 | 21 | 1008.4 |
| 20260504043805 | 70 | 0 | 2.0 | 7.0 | 0.00 | 0.00 | 0.00 | 21 | 1008.4 |
| 20260504042748 | 71 | 0 | 1.0 | 7.0 | 0.00 | 0.00 | 0.00 | 19 | 1008.3 |
| 20260504041757 | 71 | 0 | 3.0 | 12.0 | 0.00 | 0.00 | 0.00 | 18 | 1008.4 |
| 20260504040738 | 71 | 0 | 2.0 | 12.0 | 0.00 | 0.00 | 0.00 | 17 | 1008.4 |
| 20260504035714 | 72 | 0 | 3.0 | 12.0 | 0.00 | 0.00 | 0.00 | 17 | 1008.1 |
| 20260504034708 | 72 | 0 | 3.0 | 12.0 | 0.00 | 0.00 | 0.00 | 18 | 1007.9 |
| 20260504033723 | 72 | 0 | 4.0 | 12.0 | 0.00 | 0.00 | 0.00 | 18 | 1007.9 |
| 20260504032653 | 72 | 0 | 1.0 | 10.0 | 0.00 | 0.00 | 0.00 | 18 | 1007.9 |
| 20260504031631 | 72 | 0 | 1.0 | 11.0 | 0.00 | 0.00 | 0.00 | 17 | 1007.7 |
| 20260504030646 | 73 | 0 | 2.0 | 11.0 | 0.00 | 0.00 | 0.00 | 16 | 1007.7 |
| 20260504025700 | 73 | 0 | 2.0 | 11.0 | 0.00 | 0.00 | 0.00 | 15 | 1007.4 |
| 20260504023545 | 74 | 0 | 7.0 | 15.0 | 0.00 | 0.00 | 0.00 | 14 | 1007.1 |
| 20260504022544 | 74 | 0 | 9.0 | 16.0 | 0.00 | 0.00 | 0.00 | 14 | 1006.8 |
| 20260504021509 | 75 | 0 | 7.0 | 16.0 | 0.00 | 0.00 | 0.00 | 13 | 1006.6 |
| 20260504020513 | 75 | 0 | 7.0 | 13.0 | 0.00 | 0.00 | 0.00 | 12 | 1006.5 |
| 20260504015536 | 76 | 0 | 8.0 | 17.0 | 0.00 | 0.00 | 0.00 | 12 | 1006.2 |
| 20260504014549 | 76 | 0 | 9.0 | 17.0 | 0.00 | 0.00 | 0.00 | 11 | 1006.3 |
| 20260504013606 | 77 | 0 | 6.0 | 14.0 | 0.00 | 0.00 | 0.00 | 10 | 1006.3 |
| 20260504012630 | 78 | 0 | 5.0 | 10.0 | 0.00 | 0.00 | 0.00 | 8 | 1006.2 |
| 20260504011556 | 79 | 0 | 7.0 | 15.0 | 0.00 | 0.00 | 0.00 | 7 | 1006.0 |
| 20260504010538 | 80 | 0 | 8.0 | 15.0 | 0.00 | 0.00 | 0.00 | 6 | 1006.2 |
| 20260504005601 | 81 | 0 | 6.0 | 14.0 | 0.00 | 0.00 | 0.00 | 5 | 1006.1 |
| 20260504004602 | 82 | 0 | 7.0 | 21.0 | 0.00 | 0.00 | 0.00 | 4 | 1005.9 |
| 20260504002511 | 82 | 0 | 10.0 | 19.0 | 0.00 | 0.00 | 0.00 | 5 | 1005.9 |
| 20260504001534 | 83 | 0 | 7.0 | 19.0 | 0.00 | 0.00 | 0.00 | 4 | 1005.7 |
| 20260503234345 | 83 | 0 | 4.0 | 12.0 | 0.00 | 0.00 | 0.00 | 6 | 1005.7 |
| 20260503233341 | 83 | 0 | 7.0 | 16.0 | 0.00 | 0.00 | 0.00 | 5 | 1005.9 |
| 20260503232321 | 83 | 0 | 7.0 | 18.0 | 0.00 | 0.00 | 0.00 | 5 | 1005.8 |
| 20260503231322 | 83 | 0 | 7.0 | 18.0 | 0.00 | 0.00 | 0.00 | 5 | 1006.0 |
| 20260503230327 | 83 | 0 | 9.0 | 26.0 | 0.00 | 0.00 | 0.00 | 6 | 1005.9 |
| 20260503225310 | 83 | 0 | 8.0 | 26.0 | 0.00 | 0.00 | 0.00 | 5 | 1006.2 |
| 20260503224306 | 84 | 0 | 9.0 | 23.0 | 0.00 | 0.00 | 0.00 | 4 | 1006.4 |
| 20260503222115 | 85 | 0 | 6.0 | 17.0 | 0.00 | 0.00 | 0.00 | 5 | 1006.2 |
| 20260503221102 | 86 | 0 | 8.0 | 20.0 | 0.00 | 0.00 | 0.00 | 6 | 1006.3 |
| 20260503220052 | 86 | 0 | 9.0 | 20.0 | 0.00 | 0.00 | 0.00 | 6 | 1006.2 |
| 20260503215027 | 86 | 0 | 7.0 | 17.0 | 0.00 | 0.00 | 0.00 | 8 | 1006.2 |
| 20260503214009 | 86 | 0 | 8.0 | 17.0 | 0.00 | 0.00 | 0.00 | 8 | 1006.0 |
| 20260503212958 | 86 | 0 | 5.0 | 18.0 | 0.00 | 0.00 | 0.00 | 8 | 1005.9 |
| 20260503212002 | 86 | 0 | 7.0 | 18.0 | 0.00 | 0.00 | 0.00 | 7 | 1006.0 |
| 20260503211007 | 86 | 0 | 9.0 | 16.0 | 0.00 | 0.00 | 0.00 | 7 | 1006.3 |
| 20260503205002 | 85 | 0 | 6.0 | 21.0 | 0.00 | 0.00 | 0.00 | 9 | 1006.6 |
| 20260503204025 | 85 | 0 | 8.0 | 21.0 | 0.00 | 0.00 | 0.00 | 9 | 1006.7 |
| 20260503203008 | 85 | 0 | 9.0 | 20.0 | 0.00 | 0.00 | 0.00 | 10 | 1006.7 |
| 20260503202033 | 84 | 0 | 9.0 | 20.0 | 0.00 | 0.00 | 0.00 | 10 | 1006.7 |
| 20260503201003 | 83 | 0 | 10.0 | 24.0 | 0.00 | 0.00 | 0.00 | 9 | 1006.6 |
| 20260503195941 | 84 | 0 | 10.0 | 24.0 | 0.00 | 0.00 | 0.00 | 8 | 1006.8 |
| 20260503194927 | 85 | 0 | 10.0 | 21.0 | 0.00 | 0.00 | 0.00 | 10 | 1006.8 |
| 20260503193910 | 84 | 0 | 8.0 | 21.0 | 0.00 | 0.00 | 0.00 | 9 | 1007.0 |
| 20260503192930 | 85 | 0 | 8.0 | 21.0 | 0.00 | 0.00 | 0.00 | 10 | 1007.1 |